RH
87 92 89 72 53 46 48 46 49 48 39 28 25 30 26 24 20 22 18 15 12 10 11 11 11 12 18 40 68 52 99 95 65 75 74 86 76 78 71 60 52 46 38 36 33 30 28 25 22
93 86 94 88 97 62 46 57 63 38 38 38 31 21 28 25 23 21 18 14 10 10 11 11 12 12 25 61 83 96 100 100 94 84 73 68 90 87 78 73 58 54 36 37 36 30 31 24 22
74 72 81 98 88 77 54 72 58 38 35 41 31 26 26 28 24 21 16 12 9 9 9 11 13 13 28 64 91 86 100 100 99 80 73 54 64 71 77 63 64 44 43 32 30 29 30 25 24
69 65 66 80 75 64 67 81 68 50 39 38 25 22 30 29 27 19 15 11 9 8 7 11 14 15 44 76 91 86 100 100 82 84 75 48 68 82 82 57 48 45 42 36 28 32 30 24 23
62 64 59 58 69 52 62 62 63 58 44 33 23 30 39 31 25 17 13 10 9 9 10 14 16 22 61 82 96 100 100 97 100 98 75 59 100 100 81 71 61 60 45 36 31 29 27 24 22
30 41 58 50 50 50 49 42 41 46 41 32 25 26 37 26 22 16 12 10 10 10 14 17 19 37 77 84 100 100 100 100 79 67 56 73 93 97 94 84 77 57 40 33 29 29 24 23 18
30 31 29 28 33 36 36 40 56 61 51 38 28 28 30 26 22 14 11 11 11 12 16 17 21 55 83 93 100 100 100 100 70 79 100 98 85 70 74 62 52 47 40 32 30 24 21 18 18
25 28 30 26 23 27 36 46 58 53 43 45 32 26 31 26 19 13 12 12 11 13 16 22 37 66 85 87 100 86 100 92 88 72 78 67 58 57 52 49 53 38 38 35 25 19 18 21 27
24 23 24 25 26 30 33 41 37 42 52 47 33 26 28 27 16 12 15 10 12 15 19 30 50 77 85 86 100 100 100 82 97 100 94 65 65 70 62 51 42 47 40 24 21 20 25 26 29
19 20 23 25 25 26 30 32 29 40 55 41 31 33 28 25 13 12 16 9 13 16 22 40 69 86 91 94 100 100 100 100 100 92 86 73 78 73 55 54 48 39 23 24 22 25 30 32 32
19 18 19 23 24 26 28 24 30 43 45 42 35 42 36 19 11 18 11 9 14 18 24 50 72 80 88 93 100 100 100 99 71 66 79 82 71 62 54 44 36 22 29 23 29 33 32 33 35
18 17 16 18 23 22 22 24 29 29 40 42 35 51 35 14 11 24 8 10 14 22 35 45 73 83 97 100 100 100 90 68 73 91 79 69 60 55 45 27 24 30 28 33 33 34 37 36 42
18 17 16 18 19 20 21 22 26 30 38 38 49 50 25 12 22 19 7 13 17 24 38 70 74 75 79 96 100 94 74 66 64 69 69 67 58 45 21 29 28 28 33 34 37 39 41 41 46
18 18 16 18 17 16 22 24 31 30 40 61 56 38 17 13 36 11 10 17 18 23 42 61 76 80 74 68 67 71 74 87 100 96 84 51 39 27 36 30 29 32 37 42 42 40 36 39 47
22 19 17 16 17 17 22 24 30 42 62 70 51 34 16 32 33 12 10 17 22 35 54 49 62 93 75 78 80 89 98 100 100 72 41 34 34 40 32 31 32 39 43 42 41 37 33 38 45
26 21 18 18 20 21 21 23 38 54 64 56 58 31 18 37 25 15 11 19 32 37 42 70 67 55 67 91 93 99 100 100 69 38 40 39 41 33 33 35 37 38 40 40 36 33 36 43 42
26 21 20 24 25 21 20 27 81 77 72 64 60 31 19 33 24 18 15 20 29 42 51 54 68 74 88 98 100 100 100 73 39 43 45 42 40 43 44 43 40 39 39 42 44 42 38 44 49
26 20 22 24 29 21 20 26 96 92 81 78 70 25 20 38 28 25 28 26 26 37 46 57 63 68 91 100 100 100 88 40 41 45 38 45 52 56 62 60 53 50 52 50 46 42 51 58 72
22 24 24 30 28 20 17 31 59 83 88 86 63 24 24 45 36 40 44 52 53 57 64 72 89 100 100 100 82 88 40 40 46 41 50 60 64 74 77 70 60 39 34 38 41 48 54 66 62
21 22 25 29 27 18 20 37 80 82 82 78 54 26 22 52 55 72 82 85 89 90 90 94 99 97 89 84 50 32 38 43 51 57 60 61 60 55 48 44 40 35 37 39 45 49 60 67 64
21 23 25 29 26 18 24 36 78 83 71 69 51 27 20 36 64 77 93 98 99 98 93 87 84 82 70 52 38 33 39 46 47 50 52 55 56 51 45 41 38 38 40 43 43 60 68 58 65
20 23 26 30 26 19 41 61 76 81 72 76 45 27 21 22 41 55 74 91 97 100 100 95 84 69 50 43 41 43 50 41 42 44 44 48 51 48 42 41 38 36 36 40 56 65 46 50 63
20 23 26 27 26 19 34 62 81 88 66 68 36 24 24 27 37 47 66 84 98 100 86 53 40 39 38 38 50 57 55 50 45 42 47 49 50 50 48 48 44 42 44 60 76 58 58 70 72
21 22 27 27 24 20 23 68 88 85 69 58 32 31 32 34 31 40 64 77 75 47 43 46 49 48 48 49 47 46 47 52 59 64 63 60 55 52 47 47 48 52 82 82 60 62 79 96 99
25 23 24 27 26 21 26 93 100 91 68 62 37 34 35 38 37 36 41 44 44 51 53 54 51 47 46 52 59 63 63 61 55 51 50 49 49 50 53 54 54 60 62 61 65 68 74 72 64
25 24 21 26 25 22 28 97 100 94 68 67 41 37 35 38 48 51 53 56 55 57 62 57 56 58 58 62 67 76 79 68 67 66 64 64 68 71 71 73 70 70 72 72 67 63 60 55 60
27 26 24 27 25 22 43 100 100 99 69 72 48 38 42 47 50 51 54 53 65 80 75 80 85 83 83 77 71 70 76 68 64 68 69 68 66 65 67 68 67 61 54 52 54 58 76 94 97
26 25 26 24 23 31 53 100 100 100 95 76 57 44 48 54 53 58 66 79 91 90 86 78 69 67 74 76 78 78 74 74 72 68 65 62 58 54 51 51 53 53 56 55 58 71 73 66 60
26 27 27 24 23 42 68 100 100 100 100 90 64 54 49 49 51 57 69 73 76 81 80 76 86 93 82 78 76 72 68 63 63 67 67 66 64 61 65 76 84 87 92 92 69 56 51 44 43
27 29 29 29 37 59 84 100 100 100 100 100 82 64 62 60 62 65 65 61 60 67 79 87 85 84 84 78 74 74 76 70 67 67 72 80 90 88 78 78 81 65 57 51 48 42 39 29 27
Wind_Speed
60 58 60 58 57 53 48 44 42 45 41 34 33 35 33 30 34 39 40 40 41 41 42 44 45 45 44 39 37 35 32 31 32 29 30 34 32 31 33 35 38 41 39 39 41 42 46 47 49
63 62 61 61 62 60 52 49 52 48 46 40 39 39 36 34 37 41 43 43 43 40 41 43 45 44 43 39 38 31 32 37 34 33 31 33 32 32 35 38 41 40 46 44 42 46 46 48 50
67 66 67 67 65 63 54 55 56 52 46 46 44 43 41 37 39 42 45 46 42 38 38 40 41 41 41 40 39 34 33 35 34 35 35 31 33 37 36 39 40 43 43 41 44 45 47 49 50
69 68 66 69 66 63 58 56 55 54 51 47 42 43 43 39 41 43 47 46 39 35 35 37 39 39 40 40 38 38 36 35 34 36 32 31 32 36 38 40 42 41 41 44 46 47 49 48 49
63 68 70 69 68 64 60 59 55 53 51 44 44 40 42 40 43 44 45 45 38 32 32 33 34 37 41 40 38 39 39 34 34 36 35 32 35 36 39 40 41 41 43 45 46 47 47 45 44
60 65 67 67 68 66 65 62 59 54 49 43 42 41 40 39 43 42 44 40 35 28 28 30 32 38 42 40 38 35 33 36 35 36 33 35 37 39 39 41 41 44 46 47 47 46 43 41 36
50 54 61 64 65 67 64 63 58 57 55 48 44 40 38 40 42 42 42 37 32 25 26 27 31 39 43 42 40 36 34 33 33 34 35 36 38 41 41 41 43 46 48 47 46 43 39 34 33
39 43 48 55 56 58 63 63 63 60 59 50 47 41 38 40 41 42 38 34 28 23 23 25 31 39 44 43 41 37 39 35 35 36 37 37 40 39 41 43 44 43 44 45 42 36 31 30 32
35 34 40 47 47 49 55 60 60 57 55 49 44 40 37 40 39 39 33 29 24 21 22 25 31 39 41 42 38 35 38 38 37 38 38 38 40 40 42 40 41 41 44 41 34 31 30 32 34
33 31 31 31 35 40 46 51 52 52 51 45 41 35 38 38 36 37 30 25 22 21 22 26 33 39 39 41 39 36 36 35 37 38 41 42 44 41 41 39 41 43 40 37 32 32 33 35 36
33 30 28 23 24 29 35 44 45 50 45 39 38 38 39 36 35 33 25 23 22 21 22 27 33 38 38 38 34 34 35 40 41 43 42 40 39 39 39 41 42 38 37 33 32 34 35 37 38
35 34 28 25 27 30 31 34 44 45 42 40 34 38 39 34 33 30 23 22 23 23 25 28 33 35 36 34 31 33 37 40 40 38 39 40 40 40 42 41 38 38 34 33 36 38 39 40 41
39 36 32 27 27 28 31 32 37 40 37 38 37 39 35 30 29 27 19 22 24 26 28 31 32 33 35 32 30 35 38 38 38 37 38 40 41 43 39 38 35 30 34 38 37 39 41 43 45
40 37 35 28 30 28 29 29 36 33 38 40 35 36 32 28 27 23 20 24 26 29 30 31 31 33 32 33 35 32 31 32 35 36 39 41 42 39 39 33 32 33 38 39 41 43 45 46 46
39 39 38 34 34 31 31 31 32 36 39 34 34 33 29 25 26 23 23 24 24 29 30 28 30 33 33 30 32 32 35 38 38 39 41 39 36 36 33 34 36 38 41 43 45 48 50 49 49
44 41 38 36 32 32 32 28 33 38 39 32 32 30 27 27 28 26 23 21 25 30 28 28 30 30 30 29 31 35 38 40 40 39 36 37 36 32 34 37 40 43 46 49 51 51 51 53 51
41 42 36 35 30 31 30 28 32 35 33 30 31 30 28 30 26 23 20 23 28 29 29 29 30 29 30 33 36 39 41 41 39 37 35 34 33 36 38 41 45 47 50 52 53 53 52 55 58
48 38 38 34 36 34 32 32 28 30 28 25 29 29 30 28 26 23 22 25 28 30 29 28 29 29 32 37 38 41 43 41 39 37 34 34 36 39 42 45 48 49 50 54 55 56 60 61 63
43 40 38 37 37 30 33 35 31 30 25 26 28 29 30 28 27 24 25 25 26 26 26 27 33 35 38 40 39 41 43 41 40 38 39 40 42 45 47 50 52 53 53 55 58 62 65 68 65
48 44 39 40 38 34 32 35 28 31 26 25 27 30 31 32 30 28 28 27 27 28 30 32 36 39 41 43 43 42 40 42 42 42 44 45 49 52 54 55 57 58 60 61 64 66 68 71 73
50 47 45 41 37 33 34 37 27 28 29 26 27 31 32 35 36 34 33 33 33 33 35 37 38 40 42 44 43 42 43 45 46 47 48 51 55 58 60 61 63 64 66 68 70 72 74 74 75
53 49 46 42 40 38 33 31 28 26 29 26 28 33 35 38 40 39 39 39 39 38 39 41 44 46 46 44 43 45 48 49 51 53 55 59 61 63 64 65 66 70 74 76 75 76 77 79 79
58 50 48 44 43 38 33 30 26 29 30 29 29 33 36 37 38 38 39 39 39 40 45 45 44 43 43 44 46 50 51 52 54 58 61 65 68 68 69 71 73 75 78 80 79 82 82 85 85
56 52 50 46 44 39 30 31 29 31 33 29 29 31 32 34 35 39 40 40 43 40 39 39 41 42 45 48 51 53 54 56 60 63 67 70 72 74 75 78 80 82 84 82 86 88 90 91 93
57 51 49 49 47 43 37 31 32 33 33 28 30 32 32 33 33 33 35 37 37 38 40 43 44 45 47 50 52 55 60 64 67 71 73 75 78 80 83 84 85 86 87 90 92 94 97 99 100
58 54 51 48 49 46 42 33 32 33 35 30 35 35 31 31 31 34 37 37 39 42 45 46 47 49 52 55 59 63 67 71 74 76 79 81 82 84 86 88 90 93 95 97 99 101 103 106 108
54 47 48 47 49 47 40 35 36 35 35 35 37 38 36 35 37 38 39 41 43 46 48 50 52 55 58 62 66 70 73 76 79 81 83 85 87 89 92 95 97 100 103 104 106 108 110 110 111
56 50 45 48 48 46 40 38 41 36 36 39 41 41 40 42 42 43 44 45 49 51 54 57 59 62 65 69 72 76 79 81 84 86 90 93 96 98 102 104 105 106 109 110 112 113 115 118 119
57 52 44 50 45 48 42 42 43 38 39 40 43 46 47 48 47 47 49 52 55 58 61 62 65 68 71 74 77 81 84 88 90 94 97 99 102 104 107 109 112 115 117 120 122 124 126 127 126
56 51 45 45 48 46 44 45 44 43 43 43 45 48 51 52 52 54 56 58 60 61 64 68 71 75 78 82 85 88 91 95 99 102 105 108 110 113 116 120 123 125 127 129 131 132 133 130 126
Wind_Direction
246 249 250 252 250 251 252 251 258 262 265 272 276 269 278 284 291 291 293 295 290 279 266 258 251 248 243 240 240 248 251 251 252 257 259 253 257 257 260 263 268 272 277 282 282 282 285 287 289
246 250 251 251 253 253 254 253 260 261 269 265 275 273 282 283 289 295 297 298 292 280 265 253 247 241 234 230 232 237 242 245 248 256 262 258 251 255 259 262 269 272 276 275 279 284 285 288 289
247 250 252 251 252 254 254 257 258 259 264 267 273 272 279 285 289 295 298 299 296 280 262 248 241 235 228 225 228 229 234 239 246 258 260 260 258 259 263 263 266 269 272 274 280 281 285 288 292
248 251 252 251 253 256 254 255 257 258 263 269 266 269 279 282 289 294 301 300 297 274 254 240 233 228 221 221 227 229 233 240 252 256 266 266 261 266 263 263 265 270 276 280 283 284 289 293 292
247 248 251 253 254 253 253 252 257 258 261 266 266 269 277 283 287 296 298 298 292 266 246 230 224 220 217 216 225 231 238 250 255 259 264 266 268 272 266 269 269 274 277 282 286 289 293 295 295
247 248 248 250 253 252 255 259 260 259 256 263 265 268 277 282 288 295 297 297 288 256 236 225 219 215 213 218 224 232 239 247 256 263 270 268 268 272 273 272 273 276 280 285 289 293 292 290 284
238 243 248 250 251 253 255 257 257 257 258 258 264 268 278 280 290 295 294 296 281 246 228 222 216 211 213 219 225 228 241 249 260 268 272 276 274 274 274 274 278 278 283 288 291 290 287 278 277
234 238 245 250 252 252 251 250 250 253 257 260 262 268 274 280 288 291 293 291 269 237 224 218 211 209 215 221 228 240 245 263 268 268 274 278 277 279 278 277 282 286 289 291 289 285 277 275 282
236 237 243 249 250 252 250 248 249 252 254 254 259 265 270 280 287 292 289 280 264 232 220 217 212 212 219 223 229 244 247 255 265 269 271 282 282 281 279 283 287 290 288 287 281 276 277 284 288
247 242 243 244 248 243 247 249 250 248 248 251 256 262 268 278 287 285 283 271 263 229 219 216 214 216 224 229 232 252 251 258 268 275 279 280 283 283 285 285 286 285 287 284 277 277 284 289 293
246 247 240 238 253 251 256 252 248 245 245 251 253 260 271 278 283 282 275 262 253 233 222 217 220 222 230 237 242 249 258 260 267 274 278 282 283 286 288 285 284 285 284 277 275 281 288 295 297
241 246 248 251 256 257 259 253 243 243 240 243 252 260 269 279 277 279 267 255 247 230 226 221 223 226 234 237 248 254 258 263 269 277 278 281 284 287 286 283 283 285 276 273 280 284 291 296 300
239 247 251 250 258 270 253 252 246 235 231 242 255 260 267 275 275 270 262 247 239 227 223 225 228 232 237 238 249 253 263 269 274 275 280 283 285 286 285 287 285 276 270 279 285 288 294 298 299
241 244 246 249 262 276 257 253 246 229 234 248 251 258 268 267 274 263 252 237 233 226 225 227 231 238 243 244 250 262 266 274 278 278 280 280 282 285 288 284 277 275 275 280 284 289 294 296 296
238 243 247 259 262 267 261 249 240 228 238 247 252 260 274 264 263 249 239 233 232 228 230 231 234 236 239 249 256 263 274 275 276 277 277 279 279 279 276 277 274 274 277 282 285 288 290 293 295
235 243 245 254 256 263 252 245 230 231 240 242 256 267 270 252 252 240 236 230 228 232 230 233 238 239 245 251 256 269 273 275 277 276 276 278 277 273 274 272 273 277 280 282 286 290 292 293 292
235 241 242 246 249 257 250 232 230 235 242 243 257 268 259 248 245 241 237 226 229 231 236 235 236 239 245 254 265 270 271 275 271 271 273 271 272 273 274 274 275 277 280 285 287 287 288 289 289
231 236 239 240 242 253 255 232 230 238 239 250 264 268 259 247 241 233 232 227 232 235 236 241 246 248 253 261 266 269 271 270 266 267 266 266 267 270 271 273 277 279 280 282 284 287 290 289 291
230 236 238 234 241 252 259 232 229 239 243 256 267 266 256 243 236 228 230 230 233 237 241 248 256 262 265 265 265 266 268 263 266 264 265 266 270 273 275 277 278 278 281 282 284 287 290 292 291
230 232 234 235 238 253 250 233 232 240 247 256 268 265 257 240 234 234 236 240 246 249 253 256 260 264 266 267 269 268 258 263 265 267 268 272 276 278 280 280 279 277 279 282 287 289 289 289 291
229 227 231 233 236 250 242 233 236 242 248 258 272 266 263 246 238 238 243 246 250 255 260 264 264 263 264 270 268 262 260 262 262 267 271 274 277 280 283 284 280 279 283 286 289 289 290 291 288
228 224 227 229 234 249 229 225 235 249 254 262 268 265 264 257 244 242 243 247 251 256 259 259 262 265 266 263 260 262 264 264 266 272 276 278 280 282 283 283 284 283 285 287 289 289 290 290 290
226 222 224 224 234 247 233 230 240 256 259 264 268 265 264 261 257 251 250 253 256 259 263 264 262 259 258 259 264 267 269 272 275 277 279 281 283 284 284 284 284 285 287 288 287 288 289 293 293
223 221 220 222 233 241 236 231 241 253 258 264 270 266 261 257 257 256 256 257 261 259 258 259 259 260 262 265 268 270 274 276 277 279 280 281 282 283 284 284 285 287 287 287 287 289 291 292 292
219 220 220 222 228 233 236 223 237 248 259 266 266 261 256 255 257 256 254 253 255 260 264 265 264 265 268 270 274 276 277 278 279 280 281 281 281 281 281 283 285 286 286 286 286 287 287 288 289
218 222 224 222 228 230 235 227 240 249 258 264 262 262 260 260 255 252 255 259 263 266 267 269 270 272 274 275 277 278 279 279 280 280 281 281 282 284 285 286 286 286 286 286 287 288 289 290 292
217 225 221 227 228 234 231 230 238 246 256 260 260 263 261 257 257 259 261 263 266 268 271 274 275 276 276 276 277 279 280 281 282 283 284 284 285 284 284 284 284 284 284 286 288 289 288 289 289
218 224 229 224 229 228 229 231 240 245 254 260 263 263 261 262 264 267 270 271 271 273 275 277 279 280 280 280 281 282 284 285 286 286 286 286 286 286 285 286 288 288 287 287 286 288 289 289 289
224 225 229 226 231 227 224 232 240 245 250 256 262 265 267 270 272 274 275 276 277 278 280 282 283 283 284 286 286 287 287 289 290 290 291 291 291 291 292 291 290 290 290 289 289 289 288 290 289
224 231 243 236 226 225 228 234 238 245 251 254 259 264 266 270 274 275 275 275 277 279 281 282 286 288 288 288 288 290 291 292 293 293 293 293 292 292 292 291 290 291 291 290 290 291 290 291 291